Theta_e
274 274 275 276 277 277 277 277 277 277 277 277 277 277 278 278 277 278 278 278 278 278 278 277 277 277 277 277 277 277 278 278 279 278 278 278 278 278 278 278 278 279 279 280 280 280 280 280 281 281 282 282 283 284 285 285 286 287 287 288 288 289 290 290 290 290 290 290 291 291 291 292 292 293
272 273 274 275 276 276 277 277 277 277 277 277 277 277 277 277 277 277 278 278 279 278 277 277 277 277 277 277 277 277 277 278 278 278 278 278 277 277 277 277 277 278 278 279 279 279 279 279 279 280 281 281 282 283 284 285 286 286 287 287 288 289 289 289 289 290 290 290 290 290 290 291 291 292
269 271 272 273 274 275 276 277 277 277 277 277 277 277 277 277 277 277 277 277 278 278 277 277 277 277 277 277 277 277 277 278 278 278 278 277 277 277 277 277 276 276 277 277 277 278 278 278 279 279 280 281 282 282 283 284 285 285 286 287 287 288 288 288 289 289 289 289 289 289 290 290 290 291
267 268 269 271 272 274 275 276 276 276 277 276 276 277 277 277 277 277 277 277 277 278 277 277 277 276 276 276 277 277 277 277 277 277 277 277 277 276 276 276 276 276 276 276 276 277 277 277 278 278 279 280 281 281 282 283 284 285 285 286 286 287 287 287 288 288 288 288 288 289 289 289 290 290
266 266 267 268 270 271 273 274 275 276 276 276 276 276 276 276 276 276 277 276 277 277 277 276 276 276 276 276 276 277 277 277 277 277 277 277 276 276 276 276 276 276 276 275 275 276 276 277 277 278 278 279 280 281 281 282 283 284 285 285 286 286 286 286 286 287 287 287 287 288 288 289 289 290
264 265 266 267 268 269 271 273 274 275 276 276 276 276 276 276 276 276 276 276 276 277 277 276 276 276 276 276 276 276 276 276 277 277 276 276 276 276 276 276 276 276 275 275 275 275 276 276 277 277 278 278 279 280 281 281 282 283 283 284 284 284 285 285 285 285 285 285 286 286 287 287 288 289
263 264 265 266 267 268 270 271 272 274 275 276 276 276 276 276 276 276 276 276 276 277 276 276 275 275 275 275 276 276 276 276 276 276 276 276 276 276 275 275 275 275 275 275 275 275 275 276 276 277 277 278 278 279 280 280 281 281 281 282 282 282 282 283 283 283 284 284 284 285 286 286 287 288
263 264 265 266 266 267 269 271 272 273 275 275 276 276 276 276 276 276 276 276 276 276 276 276 275 275 275 275 275 275 275 275 275 275 276 275 275 275 275 275 275 275 274 274 274 274 275 275 275 276 276 277 277 278 278 279 279 280 280 280 281 281 281 281 282 282 283 283 283 284 285 286 286 287
262 263 264 265 266 267 269 271 272 273 274 275 275 275 276 275 275 275 275 275 275 276 276 275 275 274 275 275 275 275 275 275 275 275 275 275 275 275 275 275 274 274 274 273 273 273 274 274 274 274 275 276 276 277 277 278 278 279 279 280 280 280 280 281 281 282 282 282 283 283 284 285 286 287
260 261 262 263 264 267 268 269 270 271 273 275 275 275 275 275 275 275 275 275 275 275 275 275 274 274 274 274 274 274 274 274 274 274 274 274 274 274 274 274 274 274 273 273 273 273 272 272 273 273 274 274 275 276 276 277 277 278 278 279 279 280 280 280 281 281 282 282 283 283 284 285 286 287
260 261 261 262 263 265 266 267 269 270 271 273 274 275 275 275 275 275 275 275 275 275 274 274 274 273 273 274 274 274 274 274 274 274 274 274 273 273 273 273 273 273 273 272 272 272 272 272 272 273 273 274 275 275 276 276 277 277 278 278 279 279 280 280 280 281 281 282 282 283 284 285 286 286
261 261 262 262 263 263 264 265 267 268 270 271 273 274 275 275 274 274 274 274 274 274 274 274 274 273 273 273 273 273 273 273 273 273 273 274 273 273 273 273 273 273 272 272 272 272 272 272 272 272 273 273 274 274 274 274 275 275 276 277 278 278 279 279 280 281 281 282 283 284 284 285 286 286
262 262 262 262 263 263 263 264 265 267 269 270 272 273 274 274 274 274 274 274 274 274 273 273 273 272 272 273 273 272 272 272 273 273 273 273 273 273 273 272 272 272 272 271 271 271 271 271 272 272 272 272 273 273 273 273 274 274 275 276 277 278 279 280 280 281 282 282 283 284 285 285 286 286
261 261 262 262 262 263 263 264 265 266 268 269 270 272 273 274 274 273 273 273 273 273 273 273 272 272 272 272 272 272 272 272 272 272 272 272 272 272 272 272 272 272 271 271 271 271 271 271 271 272 272 273 273 274 274 275 275 276 277 277 278 279 280 280 281 281 282 283 283 284 285 285 286 286
261 261 261 261 262 263 263 264 265 266 267 268 270 271 273 274 274 273 273 273 273 272 272 272 272 271 271 271 271 271 271 271 271 271 272 272 272 272 271 272 272 271 271 271 271 271 271 271 271 272 273 274 274 275 276 277 277 278 278 279 279 280 280 281 282 282 283 283 284 284 285 286 286 286
261 261 261 261 262 262 263 264 265 266 267 268 269 271 272 273 274 274 273 273 272 272 272 272 271 271 271 271 271 271 271 271 271 271 271 271 271 271 271 271 272 271 271 271 271 271 271 271 271 272 274 275 275 276 277 278 278 278 279 280 280 281 281 282 282 283 283 283 284 284 285 286 286 286
261 261 262 262 262 263 263 264 265 266 267 268 269 270 272 273 274 274 274 273 273 272 272 271 271 270 270 271 271 271 270 270 270 270 270 270 270 271 271 271 271 271 270 271 271 271 271 272 272 273 275 275 276 276 278 278 279 279 280 281 281 281 282 282 282 283 283 283 284 284 285 285 286 286
261 262 262 262 263 263 264 264 265 266 267 268 269 270 271 273 274 274 274 274 273 272 272 271 271 271 271 271 271 271 270 270 270 270 270 270 270 270 270 270 270 270 270 270 270 270 271 272 273 274 275 276 276 277 278 279 279 280 280 281 281 281 282 282 282 283 283 283 283 284 284 285 286 286
262 262 262 262 263 263 263 264 265 266 267 268 269 270 272 274 274 274 274 274 274 273 272 272 272 272 272 271 271 270 270 270 270 270 270 270 270 270 269 269 269 269 269 269 270 270 271 272 273 274 275 276 277 277 278 279 279 279 280 280 281 281 282 282 282 283 283 283 283 283 284 285 285 286
262 262 262 262 263 263 263 264 265 266 267 268 269 271 272 273 274 273 273 274 274 273 272 272 272 272 272 271 271 270 270 270 270 270 269 269 269 269 268 268 268 269 269 269 269 270 271 272 273 274 275 276 277 278 278 279 279 279 280 280 280 281 282 282 283 283 283 283 283 284 284 284 285 285
262 262 262 262 263 263 263 264 265 267 268 269 270 271 272 273 273 273 273 273 274 274 273 272 272 272 271 271 271 271 270 270 269 269 268 268 268 268 268 268 268 269 269 270 270 270 271 273 273 274 275 276 277 278 278 278 279 280 280 280 280 281 282 282 283 283 284 284 284 284 284 285 285 285
262 262 263 263 263 264 264 265 266 267 268 269 270 271 272 272 273 272 272 272 273 274 274 273 273 272 272 272 272 272 272 271 270 269 268 268 268 268 269 269 268 269 270 271 271 270 272 273 273 273 275 276 277 278 278 278 279 280 280 280 281 281 281 282 283 283 283 284 284 284 284 285 285 285
263 263 263 264 264 265 265 266 267 268 269 270 271 271 272 272 272 272 272 272 272 273 274 274 273 273 273 272 272 273 273 272 271 269 269 268 268 268 269 269 269 270 271 271 271 271 272 273 273 273 274 276 277 278 277 278 278 279 279 280 281 281 282 282 283 283 283 283 283 283 284 284 285 285
263 263 264 264 264 265 266 267 268 269 270 270 271 272 271 271 271 271 271 271 272 272 273 273 273 273 273 273 273 273 273 273 272 270 269 269 269 269 269 268 269 271 273 272 272 272 273 273 273 273 273 274 276 276 277 278 278 278 279 280 281 282 282 282 282 282 282 283 283 283 283 284 284 285
264 264 264 265 265 266 266 267 268 269 270 271 272 271 271 271 271 271 271 271 271 271 272 272 272 272 273 273 273 273 272 273 272 271 270 270 270 269 269 269 270 271 273 273 273 273 273 273 273 272 272 273 274 275 276 278 278 278 279 279 280 281 281 281 281 282 283 283 283 283 283 284 284 285
265 265 265 265 265 266 267 268 269 269 271 272 272 271 271 272 272 271 271 270 270 270 270 271 271 271 272 272 273 273 272 272 273 272 271 271 270 270 270 270 271 272 273 273 273 273 273 273 272 272 272 273 274 274 275 277 278 278 279 280 280 280 281 281 281 282 282 283 283 283 283 284 284 285
266 266 266 266 266 267 267 268 269 270 271 273 273 272 272 272 272 271 270 269 269 269 269 270 270 270 271 271 272 273 273 273 273 272 272 272 271 270 270 271 272 272 273 273 273 273 273 273 272 272 272 273 274 274 275 276 276 277 278 279 280 280 280 280 281 281 282 282 282 283 284 284 284 286
267 267 267 266 267 268 268 269 270 270 272 273 273 273 273 273 272 270 269 269 269 269 269 269 269 269 270 270 271 272 273 273 273 273 273 273 272 271 270 271 272 272 272 272 273 273 272 272 272 272 272 272 273 274 275 275 275 276 277 278 279 280 280 280 281 281 281 282 282 282 283 283 284 285
267 268 268 268 268 269 269 270 270 271 272 273 274 273 273 273 272 270 269 268 268 268 269 269 269 269 269 270 271 272 273 273 272 273 273 273 272 272 271 271 272 272 272 272 272 272 272 272 272 271 271 272 273 273 274 275 275 275 276 277 278 279 280 280 281 281 281 282 281 281 282 282 283 284
267 268 268 269 269 270 270 270 271 271 272 273 274 274 274 273 272 270 269 268 268 269 269 269 269 269 269 270 271 271 272 273 272 272 273 272 272 271 271 271 271 272 272 272 272 272 271 271 271 271 271 272 272 273 274 274 275 276 276 276 277 279 280 280 280 281 281 281 281 281 282 282 282 283
267 267 268 269 269 270 270 271 271 271 272 273 273 274 274 273 272 271 270 270 269 269 269 269 269 269 270 270 270 271 272 272 272 273 273 272 271 271 271 271 271 272 272 272 272 272 271 271 271 271 271 272 272 273 274 274 275 275 276 276 276 278 279 279 279 280 281 281 281 281 282 282 282 282
267 268 268 269 269 270 270 271 271 272 272 273 273 273 274 273 272 271 271 270 270 269 269 269 269 269 270 270 270 271 271 271 272 272 272 272 272 272 271 271 272 272 272 272 273 272 272 272 272 272 272 272 273 273 274 274 274 275 275 276 277 278 279 278 278 280 281 281 280 281 281 281 281 282
268 268 269 269 269 270 270 271 271 272 272 272 273 273 273 272 271 271 270 270 269 269 269 269 269 270 270 270 270 270 270 270 271 272 272 272 272 272 272 272 272 272 272 272 272 273 273 273 273 273 273 273 273 273 273 274 274 274 274 275 276 278 279 279 278 279 280 280 280 280 281 281 281 281
267 268 270 270 270 270 271 271 271 272 272 272 273 273 273 272 271 271 270 270 270 269 270 270 270 270 270 270 270 270 270 270 270 271 271 272 272 271 271 272 272 272 272 272 272 272 273 273 273 273 273 273 273 273 273 274 274 274 274 275 276 277 279 279 279 279 279 279 280 280 280 280 281 281
265 266 269 271 271 271 271 271 272 272 272 272 273 273 273 272 272 272 271 270 270 270 270 270 271 270 270 271 270 270 270 270 270 270 270 271 271 271 271 271 272 272 272 272 271 272 273 273 273 273 273 273 273 273 274 274 274 274 274 275 276 277 279 280 279 279 279 279 279 280 280 280 280 281
261 262 266 269 271 271 271 271 271 272 272 272 272 272 272 272 273 272 272 271 271 271 271 271 271 271 271 271 270 270 270 270 270 270 270 271 271 271 271 272 273 273 272 272 271 271 272 272 273 273 274 273 273 274 275 274 274 274 274 275 276 278 279 279 279 279 279 278 278 279 279 279 279 280
258 259 261 264 266 268 270 271 271 271 271 272 272 272 272 272 273 273 272 272 271 271 271 271 271 271 271 271 271 270 271 271 270 270 271 271 271 272 272 272 273 273 272 272 272 272 273 273 273 274 274 273 273 274 275 274 274 275 275 275 277 278 279 279 279 279 279 279 278 279 279 279 279 279
257 258 258 259 260 262 265 267 269 269 270 270 271 271 271 272 272 273 273 272 272 272 272 272 271 271 271 271 271 271 272 272 272 272 272 272 272 273 273 273 274 274 273 272 272 273 273 274 274 274 274 273 274 275 275 275 275 275 275 276 277 278 278 279 279 279 279 279 279 279 279 279 279 279
255 256 256 256 257 257 259 261 263 265 267 268 270 270 270 271 272 273 273 273 272 272 272 272 272 271 271 271 271 272 273 273 273 273 273 273 273 274 274 274 275 275 274 274 273 273 274 274 274 274 274 274 275 276 276 276 276 276 276 276 277 278 278 278 278 278 279 279 279 279 279 279 279 279
254 255 255 255 255 255 256 257 259 261 264 266 269 270 270 270 271 272 273 273 273 272 272 272 272 272 272 272 272 273 273 273 274 274 274 274 274 274 275 275 275 275 275 275 274 274 274 274 274 274 275 275 276 276 276 276 276 276 276 277 277 277 278 278 278 278 278 279 279 279 279 279 279 279
254 254 254 254 254 254 254 255 257 259 262 265 267 269 270 271 271 272 273 274 273 273 273 272 272 272 272 272 272 273 273 273 273 273 273 273 274 274 274 275 275 275 275 275 275 274 274 274 274 275 275 276 276 276 276 276 276 276 276 276 277 278 278 278 278 278 278 279 279 279 279 278 278 278
253 253 253 254 254 254 254 254 256 258 261 264 266 267 269 271 271 272 273 274 273 273 273 273 272 272 272 272 273 273 273 273 273 274 274 274 273 274 274 274 275 275 275 275 275 275 275 275 275 275 275 276 276 277 277 276 276 275 274 275 277 278 278 278 278 278 278 279 279 279 279 278 278 278
252 252 253 253 253 253 254 254 254 256 259 262 264 266 269 270 271 272 273 274 273 273 273 273 272 272 272 272 273 273 273 273 273 273 274 274 274 274 274 274 274 274 275 275 275 275 275 275 276 276 276 276 276 277 277 276 275 275 275 275 277 278 278 278 278 278 278 279 279 279 279 279 279 279
251 251 252 252 252 253 253 253 254 255 257 260 262 265 267 269 271 272 273 274 273 273 273 273 272 272 272 273 273 273 273 273 273 273 273 274 274 274 274 274 274 274 275 275 275 275 275 276 276 276 276 276 276 276 277 276 276 275 276 276 277 277 278 277 278 278 278 278 279 279 279 279 279 278
251 251 251 251 252 252 253 253 254 254 256 258 260 262 264 266 268 270 272 273 273 273 273 273 272 272 273 273 273 273 273 273 273 273 273 273 273 273 273 273 273 273 274 274 274 274 275 275 275 275 275 275 275 276 276 276 276 276 276 276 276 277 277 277 277 277 278 278 278 279 279 279 278 278
Wind_Speed
27 27 27 27 29 30 31 32 32 31 32 32 31 28 23 17 9 7 9 8 10 14 17 17 17 20 24 24 24 26 27 29 29 29 31 32 30 28 26 24 21 19 18 18 19 19 20 22 22 23 23 23 24 25 26 27 28 28 28 28 27 27 26 26 25 25 24 24 24 23 23 23 23 24
28 28 29 29 29 29 30 31 32 31 32 33 34 34 33 29 18 10 9 10 12 13 14 18 17 17 20 21 22 24 27 28 28 29 31 31 30 28 26 25 23 20 18 18 19 20 21 22 23 23 23 23 24 25 25 27 28 28 28 28 27 27 27 26 26 25 25 25 24 24 23 23 23 23
29 29 30 31 31 30 30 30 31 32 33 33 33 32 35 35 29 21 13 9 14 16 14 18 21 20 21 21 21 22 24 26 26 28 31 30 30 28 26 26 25 22 20 19 19 20 22 23 23 23 23 23 23 24 25 26 27 28 28 27 27 27 27 26 26 25 25 25 25 25 24 24 24 24
27 28 31 32 32 31 31 30 30 31 31 33 32 30 32 34 32 29 18 9 14 18 17 19 20 21 23 22 22 23 23 23 25 28 30 30 29 28 27 27 26 24 24 23 22 21 22 23 23 23 23 23 23 23 24 25 26 26 27 27 27 27 27 26 26 26 26 25 25 25 25 25 24 24
26 28 31 34 35 34 33 33 32 31 31 32 33 31 30 30 31 31 22 13 13 15 18 20 19 20 23 23 23 24 24 23 25 27 30 30 29 29 29 29 28 27 27 26 25 23 22 23 22 22 22 22 22 23 23 24 25 26 26 26 26 26 26 26 26 26 26 25 25 24 24 24 24 24
29 29 31 34 35 34 34 34 34 34 33 32 32 31 30 29 30 32 29 20 14 13 15 19 19 20 23 24 23 24 25 24 25 27 30 30 30 30 30 29 29 28 28 28 26 23 22 23 22 22 22 22 22 23 23 24 25 26 26 26 26 26 26 26 26 26 26 25 25 24 24 24 24 24
31 31 31 33 34 34 34 35 37 36 35 33 32 32 31 31 31 33 34 28 19 14 15 18 19 20 23 24 23 24 26 26 25 27 30 31 31 30 29 29 30 30 28 27 25 23 23 23 23 23 23 23 23 23 24 25 26 27 27 27 27 26 26 26 26 26 26 25 25 25 25 25 25 25
31 30 31 32 32 32 33 34 35 36 36 34 33 33 32 32 33 34 36 36 28 19 15 16 19 21 22 24 25 25 26 27 27 28 29 30 30 30 30 30 31 30 29 27 25 23 23 23 23 23 23 23 23 23 24 25 26 27 27 27 27 27 27 27 27 26 26 25 25 25 25 25 25 25
31 31 32 33 33 32 32 32 32 32 34 34 34 34 33 33 36 36 35 37 35 26 17 14 18 21 21 21 24 27 26 24 24 26 28 29 30 29 30 31 31 30 28 27 25 24 24 24 23 24 24 24 24 24 24 25 27 27 27 27 27 27 27 27 27 26 26 25 24 24 24 25 26 26
33 32 34 35 34 32 32 33 33 32 32 34 35 36 35 35 37 36 32 34 35 31 23 16 15 19 20 19 21 26 27 24 22 22 24 27 29 29 29 30 31 30 28 27 27 26 26 26 25 25 25 25 25 24 25 26 27 28 28 28 28 28 28 27 27 26 25 24 24 24 24 25 26 26
33 32 33 33 33 33 34 33 33 33 33 35 36 37 36 35 35 33 30 31 32 29 22 18 15 16 19 20 19 22 27 27 24 20 18 19 24 27 29 29 29 28 28 27 27 27 26 25 26 26 25 24 24 24 25 27 28 29 28 28 28 27 27 27 26 25 24 24 23 23 24 25 26 27
31 31 32 32 33 35 38 38 37 35 34 34 35 36 36 35 34 32 29 28 28 24 19 17 16 15 16 18 17 18 21 22 21 22 21 19 19 21 25 27 28 27 26 26 26 26 25 25 26 26 24 24 24 25 27 28 29 29 28 27 27 26 26 25 25 24 23 23 23 23 24 25 26 27
32 32 32 33 33 35 38 40 42 42 39 37 36 35 34 33 32 32 30 27 23 20 17 15 14 14 14 16 16 17 20 21 20 22 24 21 16 15 17 21 25 25 24 24 25 26 26 25 24 23 23 24 23 23 25 26 27 26 25 25 24 24 24 23 23 22 22 22 22 23 24 25 26 26
35 34 34 35 36 38 39 41 44 45 44 42 41 40 36 34 32 30 30 27 22 19 16 14 15 12 11 16 21 23 26 28 24 20 21 19 15 14 13 14 20 25 24 21 22 24 24 21 20 21 22 21 19 20 21 22 23 22 22 22 22 22 22 21 21 21 22 22 22 23 24 24 25 26
37 35 35 36 36 37 38 39 40 42 43 43 43 43 41 39 38 35 31 27 25 23 17 16 17 13 12 19 28 29 29 28 25 23 22 19 15 13 11 9 13 19 21 19 17 19 20 18 18 19 18 17 17 18 19 19 18 18 19 19 20 20 20 20 21 21 21 22 22 22 23 24 24 25
33 32 33 34 34 34 36 36 36 37 39 40 41 42 42 41 43 42 37 33 31 29 23 18 20 20 19 23 30 32 30 28 28 26 24 21 18 16 13 10 10 13 15 13 12 14 17 16 16 16 15 15 16 17 17 16 14 15 17 17 18 18 19 19 20 20 21 21 21 21 22 23 24 24
30 31 32 32 32 33 34 34 35 35 35 36 38 39 41 41 42 41 39 38 37 36 32 26 25 27 28 28 32 35 32 28 26 24 24 24 23 20 17 15 16 16 16 13 9 12 17 15 13 14 14 14 14 15 14 12 11 13 15 15 15 16 17 18 19 20 21 21 21 21 22 23 23 22
30 31 31 31 32 33 33 33 33 33 32 32 33 35 38 39 39 38 36 36 36 38 37 32 29 32 34 34 34 33 30 27 26 26 27 28 26 25 23 22 23 22 19 15 9 9 14 12 9 13 14 12 13 13 10 9 10 11 13 13 14 15 16 17 19 20 21 21 22 22 22 22 23 22
32 32 31 32 33 33 35 36 35 34 33 31 31 33 35 34 35 36 35 34 32 33 36 35 33 33 35 36 33 29 27 27 27 28 28 28 27 25 23 21 22 22 21 18 11 6 10 10 7 12 13 11 11 10 8 9 10 10 12 12 13 14 15 16 17 18 19 20 21 22 22 22 22 22
36 34 33 32 33 33 35 37 36 35 34 31 30 32 32 31 31 32 33 32 30 30 32 34 34 32 33 33 30 27 25 25 26 26 24 23 22 19 14 13 16 19 19 19 15 9 9 10 8 11 12 9 9 9 6 7 7 7 9 11 11 12 12 13 14 14 16 18 19 20 21 21 22 22
37 36 35 34 34 34 34 35 35 35 34 33 31 30 29 28 28 28 29 30 30 29 28 30 31 30 29 27 24 23 21 21 25 25 21 21 21 15 9 7 11 15 16 18 16 10 8 9 8 10 12 9 10 10 5 3 3 4 7 9 9 9 9 9 11 12 13 14 15 17 18 18 19 21
36 35 33 33 34 33 33 34 35 34 34 32 30 28 26 25 25 25 25 27 29 28 26 26 26 26 25 23 22 22 20 20 23 25 25 24 21 15 9 7 9 11 14 17 16 10 7 8 5 6 9 8 10 11 5 3 1 2 4 6 7 7 7 8 9 10 12 13 14 15 16 16 18 20
32 31 31 32 33 33 33 34 34 35 34 31 30 28 24 21 22 25 26 27 29 28 27 26 26 26 25 24 23 22 21 21 23 25 26 26 23 18 14 11 8 6 9 16 18 11 7 7 3 3 5 3 6 10 6 3 2 5 6 4 1 3 5 7 9 11 13 15 15 15 15 16 17 18
25 27 28 29 31 32 32 33 35 36 35 33 33 29 24 21 24 28 29 30 32 30 27 24 22 22 23 24 25 23 22 23 24 24 24 26 27 24 20 16 10 5 6 14 18 12 6 5 1 2 3 1 2 6 5 3 3 8 11 10 7 5 5 6 8 11 13 14 15 15 15 16 16 17
21 23 24 24 27 29 29 30 32 33 35 37 33 28 30 29 31 32 31 31 31 29 26 23 18 15 17 20 24 24 23 23 26 25 22 23 27 27 25 22 15 8 7 13 16 12 5 4 2 2 2 2 3 5 6 4 4 8 11 11 11 9 7 7 8 8 9 10 11 12 13 13 14 16
22 25 25 25 27 27 27 28 29 30 34 34 26 30 32 31 31 31 30 29 27 26 25 22 18 14 15 16 18 23 25 23 25 28 24 20 23 25 25 23 18 11 9 12 13 11 6 4 4 2 2 2 3 5 6 5 5 8 9 9 10 11 11 11 9 7 7 8 9 10 10 11 13 15
25 29 30 29 28 26 25 25 26 29 31 25 25 33 31 28 27 26 28 28 26 25 23 20 17 16 18 19 16 20 26 24 23 28 26 20 20 22 22 22 17 10 8 9 10 10 7 6 6 4 2 2 3 4 4 4 6 8 10 9 10 13 14 13 10 7 7 6 7 8 8 8 10 11
21 26 29 28 26 24 22 22 24 25 25 16 28 33 27 26 25 23 26 28 25 22 19 17 17 17 21 23 20 21 27 26 23 25 24 20 18 18 20 20 18 13 9 7 7 9 9 8 7 6 5 4 4 4 3 5 6 8 11 11 11 13 16 14 11 9 9 8 8 8 7 8 8 5
14 20 24 24 22 19 18 19 20 19 17 9 24 31 26 26 26 25 27 26 20 16 15 16 18 19 22 27 26 22 23 25 23 23 24 22 20 18 18 19 17 16 13 9 9 10 10 9 8 8 6 6 6 5 5 6 6 7 9 10 10 11 15 15 12 11 12 12 12 12 12 11 11 7
15 18 20 18 16 15 15 16 15 13 12 7 11 23 26 28 28 27 26 23 18 15 15 18 19 19 21 25 23 19 20 25 25 25 25 24 22 21 21 18 16 16 14 12 12 13 12 11 11 9 8 7 7 7 6 6 7 6 7 9 9 8 11 14 13 11 12 13 14 16 16 15 14 11
15 16 16 13 11 10 12 13 12 11 10 6 2 9 18 26 30 28 26 25 24 20 17 17 17 16 17 19 20 19 20 25 27 27 26 24 21 21 20 16 14 15 15 15 15 16 15 14 12 11 10 8 7 7 6 6 7 7 7 9 9 7 8 13 14 10 10 12 14 16 17 17 17 16
16 16 12 9 9 8 9 10 9 8 8 4 0 2 10 25 31 28 24 24 23 19 15 14 14 14 15 19 21 20 19 21 25 27 26 23 22 21 19 14 11 12 13 15 17 17 17 15 13 12 11 9 8 7 6 6 5 6 7 8 9 8 9 12 13 10 10 11 12 13 16 17 17 18
16 14 7 5 6 6 6 7 6 5 4 2 3 3 11 24 28 26 23 20 18 16 15 14 15 15 16 18 20 20 19 19 21 24 23 21 21 21 17 12 9 9 10 12 15 17 16 14 12 12 11 10 9 8 7 6 4 4 6 6 9 10 9 11 12 11 11 11 10 12 16 17 16 16
16 12 3 4 4 6 6 5 4 3 2 3 6 6 11 20 23 23 21 18 16 17 16 15 16 17 17 17 18 20 18 16 18 21 22 20 20 19 14 10 9 8 8 10 13 14 14 13 13 11 10 9 9 10 9 8 6 6 5 4 6 8 9 10 11 12 13 12 10 12 16 18 17 16
26 20 6 3 4 4 3 1 1 3 2 5 6 6 9 16 19 19 18 16 17 17 16 15 16 16 16 17 17 17 15 14 16 18 18 18 19 16 13 10 9 8 8 9 11 12 14 15 14 10 7 6 7 7 9 11 10 7 5 1 4 7 7 8 9 11 14 14 10 9 12 17 19 19
27 24 15 6 2 3 4 4 3 4 5 6 7 6 7 11 14 14 16 19 19 16 15 15 14 15 15 15 15 15 14 14 16 16 15 16 15 13 11 11 11 10 9 8 10 14 16 16 14 10 5 4 3 2 3 6 7 4 3 0 4 7 6 6 8 10 12 13 11 8 8 13 18 20
23 22 21 19 15 10 5 4 4 4 4 5 6 5 5 8 10 10 15 21 21 16 16 16 14 14 15 14 14 15 15 15 16 16 15 15 14 12 11 11 10 10 10 9 12 16 16 14 12 10 6 3 2 2 2 3 5 4 3 1 5 7 6 7 8 9 9 10 11 10 9 11 15 18
23 23 23 22 23 23 18 12 11 12 11 10 8 6 4 2 6 10 15 19 19 16 15 15 14 15 16 14 14 15 15 15 15 15 15 15 14 13 13 12 11 11 10 10 13 16 15 13 12 11 7 4 2 2 3 3 4 4 3 4 5 6 6 7 8 7 7 8 9 9 10 12 13 15
25 25 23 23 24 26 24 23 23 22 21 19 15 10 7 5 1 7 13 17 17 16 15 15 15 16 15 14 14 14 15 15 14 13 13 14 14 13 12 11 11 11 10 10 12 13 13 13 12 11 11 8 4 4 5 5 4 5 5 6 6 6 7 8 6 6 6 7 7 8 8 8 9 11
26 25 25 25 26 28 28 29 29 27 25 23 19 12 7 5 3 1 8 14 16 16 16 16 16 15 14 14 14 14 14 14 14 13 14 14 13 12 12 10 10 10 10 10 12 12 12 13 14 15 15 10 6 6 8 7 6 5 5 5 6 7 8 8 5 5 7 7 7 8 7 7 7 8
27 27 27 27 28 29 30 30 30 30 27 23 21 17 10 4 4 4 3 13 17 17 16 16 16 15 14 15 16 15 13 12 13 14 16 15 15 15 13 10 8 9 9 9 11 12 13 15 16 16 14 9 6 7 7 6 4 3 3 4 6 8 9 8 6 6 8 8 8 7 6 5 5 6
27 27 27 28 28 29 30 31 31 32 29 25 22 20 14 7 5 5 2 13 18 17 16 16 16 15 15 16 18 17 15 14 14 14 15 15 15 15 13 10 8 8 9 10 12 13 14 14 14 14 11 9 7 6 5 4 4 3 3 5 8 9 10 9 6 6 8 9 8 6 4 3 2 3
29 28 28 28 28 28 30 32 33 32 30 27 23 21 17 11 8 4 5 14 17 16 16 17 16 16 16 17 18 17 17 16 16 15 14 13 13 13 12 10 9 10 11 12 14 15 14 13 12 13 12 9 7 6 5 6 6 5 4 6 9 11 12 10 7 6 8 8 7 7 6 4 2 3
29 29 28 28 28 28 28 31 32 32 31 28 25 22 18 15 11 5 6 14 16 15 16 17 17 16 17 17 17 17 16 17 17 16 15 13 12 12 13 12 11 12 14 16 16 15 14 14 14 14 11 8 8 8 7 7 8 8 7 7 8 10 11 9 6 5 6 7 7 7 7 7 7 9
29 28 28 29 29 29 28 29 30 32 32 30 27 25 21 18 15 10 5 9 13 15 16 17 17 17 18 18 17 16 16 16 16 16 15 14 12 12 12 12 11 12 15 16 15 13 13 14 14 12 9 7 8 9 8 8 9 11 10 8 7 7 8 7 7 7 9 9 9 8 10 12 13 13
Wind_Direction
292 289 285 281 275 270 263 256 252 250 247 244 242 238 232 230 235 250 246 240 248 244 234 238 243 237 239 244 245 244 242 242 244 245 243 243 244 244 243 245 246 247 250 256 264 270 274 277 277 278 278 278 277 276 275 275 274 273 273 274 275 275 276 275 275 275 274 275 276 278 279 280 279 279
291 289 285 282 279 276 270 263 256 251 248 245 241 240 238 233 228 237 251 248 246 239 228 233 239 237 236 237 239 240 240 240 242 245 245 243 244 245 246 248 247 244 247 256 265 272 276 277 277 277 276 276 275 274 273 272 272 271 271 271 272 273 273 274 274 273 273 274 275 277 278 278 279 278
287 286 283 281 279 277 274 269 262 254 249 246 241 238 238 235 230 231 240 251 247 234 224 234 238 237 239 237 234 236 237 237 238 243 244 243 244 245 245 246 244 242 248 259 267 273 276 277 277 276 275 275 273 272 271 270 270 270 270 270 270 271 271 272 273 272 273 274 274 275 276 277 278 278
286 284 283 280 277 277 276 272 267 259 251 246 242 237 235 234 232 231 231 241 250 236 228 237 239 238 242 237 230 230 232 233 235 239 242 242 242 242 242 244 243 245 254 263 268 272 275 277 277 276 275 274 273 271 270 269 269 269 269 269 269 270 270 270 272 272 272 273 274 274 275 276 278 278
290 286 283 280 275 275 275 273 268 263 256 248 243 237 234 233 231 229 225 230 249 240 230 234 236 235 237 233 228 230 231 231 232 236 239 239 239 239 241 244 245 250 259 266 269 272 274 276 276 275 275 273 272 271 269 269 269 269 269 269 270 270 271 270 270 270 270 272 273 274 275 277 278 278
291 288 283 279 276 273 271 270 268 264 259 251 243 237 233 231 230 229 226 227 239 240 225 224 227 227 227 229 230 230 232 232 231 234 236 235 235 238 241 244 249 255 261 266 269 272 275 276 276 275 274 273 272 271 270 269 269 270 269 268 269 269 270 269 268 268 269 271 273 274 276 278 279 279
287 285 281 278 277 274 269 267 265 263 259 252 245 240 236 233 232 230 228 226 230 238 229 217 216 218 221 227 231 232 236 237 235 236 238 236 236 238 241 246 252 257 260 264 268 271 274 276 275 275 274 273 272 271 271 271 270 270 268 267 266 267 267 267 267 267 268 270 272 274 276 278 279 279
283 281 279 278 278 274 268 264 262 258 255 252 247 244 240 235 234 233 230 228 228 232 231 217 213 215 218 224 229 232 238 241 239 238 238 238 238 240 244 248 253 256 260 262 265 269 273 275 275 275 274 274 273 272 271 271 270 269 268 267 266 266 266 266 266 267 267 269 272 273 275 278 278 278
281 278 277 277 277 274 269 268 267 261 255 251 246 244 241 235 235 234 231 229 228 229 229 218 213 217 217 220 227 230 233 236 237 236 237 238 240 242 246 249 252 254 258 261 264 268 270 272 273 273 273 272 272 271 271 270 270 268 267 266 265 264 264 265 265 265 267 268 270 273 275 277 278 277
278 275 276 276 274 272 271 271 270 269 266 258 247 241 240 237 234 233 230 227 227 228 229 222 212 212 213 214 222 227 229 231 233 233 235 238 239 241 243 246 249 252 255 259 265 269 272 274 275 275 273 271 270 270 270 269 268 267 266 264 263 263 263 264 264 264 265 267 269 272 274 276 277 277
272 271 273 274 273 271 272 271 270 270 272 269 256 243 238 236 232 229 227 225 225 226 225 220 212 207 208 212 217 225 229 232 235 234 234 235 235 235 238 241 245 250 254 259 265 269 272 275 276 275 272 270 269 269 268 268 267 265 264 262 261 262 262 262 263 263 263 266 268 271 273 275 276 276
272 271 272 272 271 272 271 270 269 268 269 272 267 251 238 234 232 227 223 223 223 221 216 213 211 204 204 209 214 222 225 228 231 230 230 234 231 229 234 239 243 249 255 260 265 268 271 275 275 273 270 268 268 268 268 267 264 261 259 259 259 260 261 262 262 261 262 264 267 270 272 274 275 274
278 276 276 274 272 273 273 269 266 265 265 269 271 261 244 232 229 226 223 221 217 213 211 207 201 200 203 204 206 212 217 220 224 226 228 233 232 227 232 239 242 247 254 259 264 269 273 275 274 273 273 272 270 268 266 263 261 259 258 259 260 260 261 261 260 259 261 263 266 269 272 274 274 272
279 277 276 276 274 273 273 271 266 264 265 267 269 268 254 234 226 224 221 219 215 208 205 200 196 198 202 202 206 215 221 224 224 223 223 226 227 226 233 241 244 247 253 256 262 268 270 269 271 274 274 272 269 266 262 258 258 259 260 260 260 260 260 260 259 258 260 263 266 268 271 273 273 271
277 275 274 274 274 272 272 272 267 263 264 264 266 270 262 240 228 225 220 217 215 210 205 203 201 199 200 207 214 221 224 224 222 221 221 219 216 217 227 239 244 248 251 249 252 261 265 267 274 276 270 266 265 262 259 257 255 256 258 259 260 261 260 259 259 259 261 263 265 266 270 272 271 269
271 272 272 271 270 270 270 270 268 264 263 263 265 271 269 249 231 226 222 219 216 210 207 206 205 203 204 210 217 221 223 222 221 221 221 218 215 217 222 226 234 243 245 239 241 258 266 272 277 272 264 263 263 259 255 253 252 255 259 261 261 262 261 260 260 261 261 262 263 265 269 271 271 269
267 267 269 270 268 269 269 268 267 263 262 264 265 271 273 257 233 223 222 220 219 216 211 208 209 209 208 213 220 223 221 218 216 215 218 219 218 220 221 223 232 241 242 237 243 265 270 273 274 268 268 269 261 254 250 243 245 256 260 262 265 265 264 264 263 262 261 261 262 264 267 270 271 271
264 262 264 266 267 269 269 266 266 263 262 265 267 270 272 257 232 221 221 219 218 219 216 213 214 216 216 219 224 225 220 216 215 215 217 220 220 223 228 234 240 243 244 239 238 264 268 267 271 271 274 273 257 248 242 234 243 261 265 267 271 270 270 269 266 263 261 259 260 262 265 268 271 272
263 259 258 260 262 264 266 265 264 265 264 265 267 268 265 248 227 220 221 216 213 216 218 218 220 223 225 225 226 227 223 222 226 228 228 228 227 228 232 238 241 242 241 234 223 245 265 261 270 278 279 274 253 237 228 234 245 260 268 274 277 275 276 275 269 264 261 259 259 261 263 266 269 271
263 258 255 255 258 260 262 263 262 261 260 260 263 264 255 237 223 219 219 215 211 213 218 222 225 228 231 230 230 231 231 231 231 229 228 228 225 222 224 228 233 234 234 228 217 225 260 261 271 285 286 274 245 224 218 236 239 250 267 277 283 280 278 277 271 266 261 258 259 261 263 264 266 269
262 259 255 255 257 258 260 263 262 260 258 257 261 259 244 227 219 216 214 214 212 211 215 222 226 229 230 229 229 228 228 231 228 217 211 214 211 205 207 214 221 223 222 218 211 213 247 257 267 287 291 275 238 220 224 257 246 255 266 268 273 274 278 283 278 272 267 262 261 263 265 266 267 268
260 257 254 253 254 255 259 262 261 260 256 255 258 252 232 216 213 209 205 206 210 212 213 215 218 222 224 221 219 219 215 216 219 213 208 208 202 195 202 206 202 212 217 210 200 196 230 246 257 295 295 274 227 216 233 317 327 300 286 268 253 256 275 287 278 274 273 268 268 270 269 270 272 272
256 253 251 252 251 253 258 259 259 259 255 254 258 247 221 205 207 203 198 199 204 209 211 210 209 211 215 214 214 217 213 208 212 215 212 207 199 195 200 197 186 196 213 207 197 189 210 227 239 326 309 277 212 217 238 302 348 8 6 360 296 255 277 282 272 269 272 270 271 275 274 274 277 277
251 251 251 251 251 255 259 256 256 257 255 258 259 239 207 197 202 200 200 202 203 204 207 208 205 203 205 207 208 212 216 210 208 213 213 210 207 203 197 192 191 182 172 188 191 187 191 208 214 337 311 291 241 250 265 286 350 9 12 21 29 11 324 302 284 272 270 273 276 279 280 277 275 276
244 247 249 247 249 255 256 256 258 256 257 264 257 223 199 201 204 199 200 203 203 203 205 206 207 202 200 203 202 203 212 214 207 206 209 212 214 211 203 196 197 195 162 170 181 182 183 208 231 315 304 271 279 294 296 302 352 10 13 21 25 16 357 345 328 298 283 286 291 292 290 284 279 279
241 247 249 247 249 252 253 258 258 256 265 268 240 202 198 204 201 196 198 198 197 200 202 204 208 208 207 212 205 197 203 213 208 203 205 211 215 216 212 201 193 185 168 169 182 190 194 213 229 261 298 269 280 296 296 301 339 9 20 27 28 25 22 17 3 339 315 307 306 307 305 294 287 283
247 252 253 251 253 253 253 260 257 260 274 265 207 192 199 199 190 191 194 191 190 192 195 198 203 205 210 220 219 202 198 205 206 202 203 210 213 214 212 206 198 192 177 170 182 195 204 221 237 245 258 283 296 294 283 292 322 351 9 20 29 32 31 28 20 6 353 346 337 326 321 313 299 282
255 258 256 251 253 253 255 260 258 266 283 252 194 194 200 187 179 183 185 182 183 184 185 192 199 201 206 215 223 211 197 196 201 201 201 208 211 207 205 205 208 218 222 209 198 202 207 221 240 247 249 266 282 286 289 296 309 332 350 3 21 32 33 32 30 26 25 26 15 4 4 4 351 318
273 272 267 256 252 254 257 263 263 275 298 259 196 197 192 175 173 179 178 176 175 175 181 193 197 201 205 210 217 215 197 190 193 195 197 203 207 205 205 210 216 224 228 226 224 225 223 226 241 247 241 245 259 269 285 295 300 316 333 342 356 18 29 34 36 36 40 43 36 33 39 36 25 18
287 287 282 268 257 255 257 263 269 279 303 303 204 198 188 172 171 176 174 171 172 175 185 194 198 203 205 204 208 206 188 182 187 191 194 198 201 203 205 210 219 224 225 225 231 237 237 238 245 243 231 235 252 259 271 291 302 309 326 344 353 5 20 29 37 44 47 48 47 47 51 49 43 42
299 297 291 273 255 255 257 261 270 276 286 309 269 209 189 172 173 180 180 183 188 187 186 191 197 202 198 190 192 192 182 177 182 188 192 192 194 199 201 200 206 215 219 223 230 238 244 248 248 237 222 228 248 257 270 293 304 307 322 350 3 359 3 19 33 48 54 53 51 51 51 49 46 47
315 310 299 268 246 255 269 268 270 279 277 270 342 236 180 168 174 183 185 186 191 188 182 184 190 191 183 177 182 187 183 177 178 181 185 187 189 194 196 193 196 207 215 223 233 241 247 251 246 228 216 223 241 258 279 288 289 296 312 345 11 12 10 21 31 46 64 62 51 46 48 47 45 45
318 311 290 245 239 248 269 276 271 275 274 208 135 154 166 164 171 180 180 179 181 179 177 180 183 183 178 174 180 186 187 185 183 180 181 185 189 192 194 196 201 209 214 226 237 241 242 240 231 216 212 224 240 251 269 277 275 292 309 342 14 18 22 30 35 49 68 66 49 45 50 48 45 43
347 337 291 194 218 234 241 254 254 253 243 156 140 154 163 162 168 176 178 176 175 174 178 181 181 182 180 177 180 184 182 184 188 188 188 190 191 191 192 196 206 210 212 225 237 237 227 215 207 204 209 227 241 244 247 251 264 289 303 333 11 17 29 39 43 57 74 71 55 49 50 47 45 45
16 3 355 180 190 214 222 215 218 228 201 155 154 159 156 162 171 175 173 173 173 175 180 182 180 180 180 177 178 180 179 180 186 190 191 192 193 193 192 197 206 206 204 216 226 218 203 190 184 185 198 223 242 245 238 239 249 266 279 320 37 37 42 45 45 59 72 72 64 56 48 42 42 44
16 2 359 7 52 130 138 144 188 209 189 174 181 180 163 168 176 174 172 178 181 177 179 183 180 177 176 172 171 174 177 179 181 183 185 187 189 191 192 199 204 198 192 198 197 189 182 177 173 173 180 202 220 220 215 217 216 220 242 298 59 59 60 58 54 60 67 65 61 59 50 41 40 41
9 5 6 5 6 16 51 105 119 126 139 155 170 175 172 179 185 182 181 185 185 179 177 181 179 172 170 171 171 174 176 176 174 174 175 178 181 183 188 193 194 188 183 183 179 176 174 173 177 180 178 172 170 154 157 178 173 172 204 181 88 78 74 70 63 63 64 59 55 53 50 47 44 42
12 11 8 5 6 6 4 10 30 41 43 48 58 57 48 128 184 191 187 184 182 178 177 176 172 169 172 173 173 174 176 173 168 165 166 170 174 178 182 184 183 179 176 173 174 176 178 180 183 185 179 167 152 150 156 166 168 169 170 148 123 99 82 76 69 62 58 56 55 53 51 52 52 52
14 12 9 7 7 5 4 7 14 19 20 22 25 27 24 26 119 187 186 182 179 176 175 173 170 171 173 174 174 174 173 168 163 160 163 168 172 175 178 179 177 172 166 163 168 174 181 186 187 187 183 173 146 136 146 148 148 149 143 142 142 119 95 88 78 60 50 45 44 47 53 61 65 67
9 11 10 8 6 6 9 11 13 14 13 12 13 13 11 2 3 144 180 184 180 174 174 174 173 171 170 170 170 168 165 163 161 160 163 167 171 175 178 176 172 167 163 162 165 173 184 191 191 189 184 172 132 120 132 125 114 116 123 142 158 138 110 99 86 60 50 42 39 48 59 65 63 62
6 6 6 6 7 7 8 9 10 10 11 11 10 10 7 346 340 356 196 190 184 175 171 172 172 170 169 168 167 163 158 157 159 160 163 166 170 175 179 175 168 166 165 163 167 176 189 198 197 192 184 169 138 132 133 116 101 105 105 122 146 140 116 104 94 73 59 48 45 52 56 52 47 49
5 3 3 4 5 6 7 8 8 9 10 9 6 6 9 2 339 343 215 188 182 173 168 168 169 168 167 167 167 164 159 158 161 163 165 166 167 170 173 171 168 169 166 166 173 182 188 194 197 193 182 169 156 151 142 123 123 134 111 108 120 121 114 109 102 81 65 55 49 50 45 33 37 45
5 4 4 4 4 5 7 8 9 10 11 9 6 6 11 6 351 354 160 170 170 167 167 167 165 165 166 166 166 165 164 164 166 167 169 169 167 165 164 163 164 164 158 156 166 176 178 175 174 171 166 164 160 147 130 126 132 132 124 123 120 114 113 117 109 83 69 57 47 46 46 39 44 78
5 4 3 4 4 4 5 7 10 12 13 13 13 14 17 14 6 17 150 164 165 165 169 169 166 166 167 165 164 165 167 167 168 169 170 171 171 169 166 162 156 152 148 145 151 162 169 167 164 160 156 162 168 152 132 130 138 136 134 139 133 123 124 128 117 85 70 53 36 41 60 79 97 109
3 3 4 5 6 6 5 6 8 11 14 16 16 19 23 26 26 35 85 150 163 167 168 168 167 169 170 168 167 167 167 167 168 170 169 168 168 170 170 164 154 149 150 149 147 150 156 159 163 164 162 166 172 163 145 140 143 141 142 149 145 131 131 134 124 104 86 68 58 70 94 106 112 114